Preview of NWS' New Version of Forecast
This preview is not operational and should not be used for support decisions.

Regional Weather Roundup (RWR)

Issued by Gray - Portland, ME (GYX)

                            
000
ASUS41 KGYX 240210
RWRGYX
WEATHER ROUNDUP FOR MAINE AND NEW HAMPSHIRE
NATIONAL WEATHER SERVICE GRAY ME
1000 PM EDT THU MAY 23 2019

MEZ002-005-006-010-012-015-018-020-021-024-026-027-029-240300-
MAINE
  
CITY           SKY/WX    TMP DP  RH WIND       PRES   REMARKS
PORTLAND       LGT RAIN  53  50  89 S5        29.78F                  
SANFORD        LGT RAIN  56  54  93 S3        29.77F                  
BAR HARBOR     CLOUDY    50  45  83 S9        29.90S                  
WISCASSET      LGT RAIN  51  49  92 VRB3      29.84F                  
ROCKLAND       LGT RAIN  48  47  96 S7        29.84F                  
FRYEBURG       RAIN      56  55  97 S3        29.77F FOG              
LEWISTONAUBURN LGT RAIN  52  51  97 E5        29.78F                  
AUGUSTA        RAIN      51  50  96 SE8       29.82F FOG              
WATERVILLE     LGT RAIN  51  49  92 CALM      29.81F                  
BANGOR         LGT RAIN  51  47  86 SE8       29.87S                  
GREENVILLE       N/A     48  46  93 SE12      29.80F                  
MILLINOCKET    LGT RAIN  52  48  86 SE5       29.87F                  
HOULTON        CLOUDY    54  44  69 E9        29.87F                  
PRESQUE ISLE   CLOUDY    54  46  74 SE5       29.88F                  
FRENCHVILLE    CLOUDY    56  43  61 SW7       29.86F                  
CARIBOU        CLOUDY    57  43  59 SW5       29.87F                  
$$

NHZ002-005-008-009-011-012-014-240300-
NEW HAMPSHIRE
  
CITY           SKY/WX    TMP DP  RH WIND       PRES   REMARKS
PORTSMOUTH     PTCLDY    59  53  79 S5        29.75F                  
ROCHESTER      MOCLDY    60  52  74 VRB5      29.76F                  
NASHUA         FAIR      59  57  93 CALM      29.77F                  
MANCHESTER     FAIR      61  54  77 S7        29.74F                  
CONCORD        FAIR      58  52  80 S8        29.76F                  
LACONIA        CLOUDY    58  56  93 NW18      29.80R                  
PLYMOUTH       LGT RAIN  58  55  92 CALM      29.75S                  
BERLIN         NOT AVBL                                               
WHITEFIELD     CLOUDY    56  54  93 CALM      29.70F                  
JAFFREY        CLOUDY    58  53  84 S9        29.77F                  
KEENE          CLOUDY    59  55  87 S8        29.76F                  
LEBANON        LGT RAIN  59  54  83 SW7       29.74F                  
MT WASHINGTON  LGT RAIN  41  41 100 SW30G40     N/A  VSB 0            
$$

VTZ005-007-008-240300-
VERMONT
  
CITY           SKY/WX    TMP DP  RH WIND       PRES   REMARKS
ST JOHNSBURY     N/A     59  58  96 MISG      29.69F                  
MONTPELIER     LGT RAIN  59  56  89 S12       29.73F                  
BURLINGTON     CLOUDY    63  61  93 S15G24    29.66F                  
$$

MAZ007-012-024-CTZ003-RIZ002-NYZ038-NYZ072-240300-
SOUTHERN NEW ENGLAND AND NY
  
CITY           SKY/WX    TMP DP  RH WIND       PRES   REMARKS
BOSTON         MOCLDY    61  56  83 S15       29.78F                  
WORCESTER      CLOUDY    56  56 100 SW17G25   29.78F                  
NANTUCKET      CLOUDY    56  54  93 S17       29.92F                  
PROVIDENCE     CLOUDY    59  57  93 S9        29.84F                  
HARTFORD       MOCLDY    64  57  78 S12       29.78F                  
ALBANY         TSTM      66  61  84 NW9       29.77R                  
NEW YORK CITY  MOCLDY    66  61  84 S7        29.85F                  
$$

ANZ081-ANZ082-ANZ150-NHZ014-MEZ023>029-240300-
COASTAL MARINE OBSERVATIONS
  
STATION/POSITION TIME  TEMP    WIND        PRES    WAVE
                       AIR SEA DIR/SP/G            HT/PER
                 (UTC) (F)     (DEG/KT/KT) (MB)    (FT/S)
ISLE OF SHOALS   0100   56     190/ 22/ 22 1008.9F
JEFFREYS LEDGE   0138      47                N/A     4/ 5
GEORGES BANK BUO 0150   49 45  180/ 12/ 16 1018.5F   3/ 9
$$

.............KEY..............
   WCI - WIND CHILL
   TC  - TEMPERATURE IN CELSIUS
   VSB - VISIBILITY IN MILES
   HX  - HEAT INDEX
   FAIR- INDICATES FEW OR NO CLOUDS BELOW 12,000 FT, WITH NO 
         SIGNIFICANT WEATHER AND/OR OBSTRUCTIONS TO VISIBILITY.